Dewpoint
50 51 49 51 50 52 51 51 52 52 52 53 54 53 54 54 54 54 54 55 55 54 55 55 55 54 45 32 26 41 50 47 46 45 43 40 38 38 33 36 38 36 35 36 37 37 37
52 51 52 51 51 51 51 51 51 51 52 52 53 53 53 54 54 55 55 55 54 54 54 54 54 52 39 23 37 47 44 43 44 44 43 43 41 41 39 38 37 36 37 38 38 36 37
51 50 51 51 51 50 50 51 51 52 52 52 51 51 52 53 54 54 54 54 54 54 54 54 54 46 36 23 40 44 43 41 44 44 41 44 44 41 41 38 40 40 36 34 29 32 32
50 51 51 50 49 50 50 52 52 52 52 52 52 52 52 53 53 54 54 54 54 54 54 53 52 42 24 38 42 40 42 40 43 45 45 45 44 43 42 41 36 33 32 22 24 28 30
49 49 50 51 50 50 51 52 52 53 53 53 53 53 53 53 53 54 55 54 53 53 52 53 43 39 22 37 36 38 39 36 40 43 44 45 44 41 39 33 22 25 20 23 24 29 29
51 52 53 53 53 53 53 53 54 54 54 54 54 54 54 54 54 54 54 51 51 47 48 46 40 29 27 26 33 36 39 38 37 39 39 42 39 35 32 23 12 19 23 24 24 25 27
53 53 54 54 55 54 54 54 54 54 54 55 55 55 54 54 53 54 42 32 26 23 35 25 26 26 28 31 34 33 37 37 38 30 23 34 26 15 19 24 25 27 27 25 25 24 24
55 55 54 54 53 53 53 54 54 54 54 54 54 55 55 54 53 48 38 33 35 37 28 33 31 31 31 33 27 30 38 30 28 23 27 22 16 22 26 27 27 26 23 20 20 23 23
52 52 52 51 51 51 51 51 51 51 51 51 52 53 54 53 50 43 40 40 44 42 33 28 29 29 29 33 26 26 35 31 28 23 24 21 18 26 24 22 21 21 20 18 18 22 27
50 49 49 49 49 49 48 48 49 49 49 49 50 52 53 53 37 41 38 43 43 41 25 20 26 27 32 32 25 33 35 30 26 21 24 23 24 21 20 20 22 19 21 21 22 23 17
48 47 47 47 47 47 47 47 46 47 47 47 48 49 51 52 40 36 40 44 43 36 -2 21 24 31 33 27 28 28 34 30 24 22 25 14 19 21 17 20 24 19 23 23 24 25 24
45 45 45 44 44 44 44 44 45 44 45 46 47 48 50 46 42 42 44 45 39 15 -3 14 22 23 24 28 28 30 31 31 31 28 27 26 28 26 22 25 25 24 21 21 22 21 12
42 42 42 42 41 43 43 41 41 42 43 43 46 49 50 49 29 45 44 37 9 2 16 14 17 24 22 20 23 27 23 22 17 10 9 15 16 25 27 20 21 21 18 11 5 9 10
39 39 39 41 41 41 40 40 41 41 42 43 46 49 47 48 46 45 40 21 -10 2 6 21 20 21 17 20 21 21 21 16 23 18 14 8 1 18 23 19 19 21 18 14 6 9 13
39 41 40 40 39 39 38 38 38 40 41 44 47 45 42 46 46 44 31 2 -11 4 10 21 20 17 15 22 21 18 17 15 17 20 10 10 9 18 22 23 23 20 16 22 18 18 17
40 41 42 40 38 37 38 38 39 39 41 43 44 42 39 46 45 40 28 2 2 18 25 20 14 13 6 13 16 17 14 15 18 23 16 13 10 17 20 24 25 22 22 17 18 10 8
38 38 39 40 40 39 39 39 38 39 40 41 41 29 38 45 42 36 21 19 21 25 27 20 16 12 15 14 18 15 10 14 21 22 19 19 16 13 18 17 16 20 22 20 18 17 13
38 39 39 38 38 39 40 39 38 38 40 40 37 11 38 41 33 31 28 29 32 29 27 26 24 20 18 18 16 15 11 13 24 24 20 21 17 14 13 17 20 20 16 18 14 12 17
38 38 38 37 36 38 39 39 39 38 40 39 33 34 40 40 27 26 27 28 29 28 26 25 23 25 24 18 8 16 19 22 25 23 20 22 18 13 11 14 21 19 21 19 19 18 16
38 39 39 37 37 37 38 39 39 39 39 40 34 25 33 35 34 34 32 29 26 30 28 29 27 28 26 24 23 18 20 23 26 24 25 24 19 14 12 10 13 16 18 20 19 17 16
40 39 39 40 39 39 38 38 39 39 37 41 35 32 35 28 30 32 33 31 30 29 31 30 29 25 29 26 25 24 27 27 25 30 26 22 19 18 18 18 18 17 17 17 19 18 17
37 38 38 40 41 40 39 38 38 39 37 35 33 31 31 27 30 31 31 29 28 26 28 29 24 23 26 28 29 27 26 27 27 26 25 25 20 21 20 20 20 20 20 20 20 19 19
38 39 39 38 39 40 40 40 38 39 37 31 34 32 31 25 26 24 26 24 25 23 26 25 23 21 20 23 26 24 24 25 25 25 28 26 24 22 20 21 21 19 20 21 20 22 21
38 38 39 39 39 39 39 39 40 39 38 34 34 33 27 20 22 22 24 22 23 24 23 22 23 21 22 26 26 24 24 23 22 25 28 27 25 24 22 22 17 18 20 21 20 20 23
37 37 38 38 37 38 39 39 38 39 40 36 35 31 27 20 23 21 23 26 23 22 22 23 23 26 23 25 23 21 20 23 24 25 25 27 26 24 22 20 19 21 20 20 19 17 20
35 34 33 34 34 34 35 35 37 37 38 37 35 35 31 24 17 23 22 22 21 23 20 17 20 22 22 15 25 19 12 17 13 24 27 27 27 24 22 20 16 17 20 22 21 17 18
33 34 33 33 33 33 33 34 34 36 37 38 37 36 32 26 24 24 22 21 23 22 19 20 21 15 18 11 13 9 9 18 13 18 20 24 25 22 22 21 20 21 21 21 16 12 21
31 31 32 32 33 35 35 33 32 33 36 37 36 38 35 30 27 25 25 23 23 23 18 17 15 17 17 15 16 18 20 21 22 17 20 19 20 22 23 22 18 24 22 19 20 22 23
35 34 32 33 34 34 34 35 34 32 33 36 35 38 38 33 31 32 29 27 25 23 22 22 17 18 19 17 9 10 5 5 4 1 12 20 20 23 23 21 24 24 24 24 23 22 23
Wind_Speed
12 13 13 14 14 15 15 16 16 17 17 18 18 17 15 14 13 12 12 12 11 11 9 9 10 12 3 3 4 4 5 3 3 3 6 4 6 3 4 3 4 6 6 7 14 20 18
12 13 14 15 14 15 16 16 17 17 18 18 19 19 18 16 15 13 12 11 11 10 8 8 8 8 1 4 1 5 4 2 2 3 2 3 2 1 1 3 3 3 11 24 15 14 11
13 13 14 14 15 16 16 17 17 17 18 19 20 21 20 19 17 15 13 12 11 10 8 6 4 2 0 10 1 4 2 1 2 2 1 1 3 1 1 4 3 6 12 14 5 2 5
13 13 14 14 15 16 16 17 17 18 19 20 21 22 22 21 20 18 16 13 10 8 5 4 2 1 5 1 1 1 2 1 1 1 1 1 3 1 1 5 3 4 2 11 9 6 2
12 13 14 14 15 16 17 17 18 18 20 20 22 23 24 24 22 20 16 13 8 4 3 2 1 2 6 0 2 0 3 1 2 3 1 4 2 1 1 5 3 4 12 14 14 4 4
11 11 12 12 13 14 15 17 18 19 20 22 23 24 25 25 24 19 15 3 2 4 2 2 2 2 4 1 1 1 1 2 2 2 2 2 3 2 1 4 10 14 11 8 17 8 5
9 10 11 13 14 15 18 18 18 19 20 21 23 24 25 27 25 17 6 2 4 1 1 6 1 2 2 4 0 1 3 3 2 3 3 2 3 6 6 5 7 9 9 16 18 8 10
11 14 16 17 18 19 18 19 20 21 22 23 24 24 26 28 24 12 3 5 3 2 9 3 8 7 6 2 1 1 3 0 2 4 3 3 5 3 6 8 8 9 14 12 12 4 9
16 17 17 18 19 19 20 21 22 22 22 23 24 25 26 29 13 6 6 3 2 2 4 4 4 3 2 4 2 2 4 2 1 2 2 5 4 6 4 12 8 9 6 8 9 15 2
15 16 17 18 18 19 19 21 22 23 24 25 25 26 26 34 2 3 3 6 2 1 5 2 1 1 2 2 2 2 3 2 1 3 4 7 3 4 9 5 2 12 5 5 16 7 4
16 17 18 19 19 20 21 22 23 23 25 26 27 27 24 14 4 1 2 3 1 1 6 0 2 2 2 2 1 2 0 2 4 3 1 4 3 4 6 3 2 10 16 9 1 1 3
17 17 17 18 19 20 21 21 22 24 25 26 27 26 24 3 4 2 4 1 0 3 7 2 2 2 2 1 2 1 2 2 1 2 3 10 2 4 4 6 4 13 9 1 2 1 2
15 16 18 18 19 20 21 23 24 25 27 27 30 27 16 3 3 4 4 1 3 4 2 2 3 2 2 4 3 4 3 4 4 3 4 5 3 2 3 6 1 9 9 8 9 9 6
15 16 17 18 19 22 23 25 26 27 27 28 30 24 2 3 6 3 2 2 7 8 8 1 2 1 5 4 3 2 2 5 6 3 2 2 7 4 2 1 3 5 3 3 7 7 11
15 14 15 17 19 20 24 27 28 29 29 30 21 6 2 5 6 2 4 6 9 10 4 4 2 5 5 3 4 2 6 5 6 14 6 4 6 2 1 0 0 0 2 2 2 1 3
15 18 16 16 18 21 24 26 27 30 31 27 9 6 3 10 3 2 3 11 9 5 1 2 7 7 8 5 6 5 4 4 3 8 1 3 5 2 2 2 3 0 6 1 2 5 7
14 14 16 18 18 20 23 26 28 29 32 24 4 3 4 8 2 3 7 8 6 5 3 5 6 8 8 4 7 5 5 3 4 6 3 5 3 3 1 5 6 2 2 2 3 3 3
13 15 16 17 18 19 23 26 29 30 31 10 6 2 8 5 2 1 4 4 7 6 2 5 3 6 5 2 4 5 7 6 2 8 6 5 4 6 8 0 0 1 4 5 3 3 4
12 14 16 16 18 20 23 24 28 31 27 7 4 4 4 3 1 3 8 6 4 6 5 5 3 2 2 2 4 7 4 3 4 6 5 7 3 4 4 1 1 4 4 3 3 3 9
12 13 13 16 18 21 22 25 28 32 29 2 4 5 6 6 2 3 6 7 7 10 3 6 4 4 5 3 6 4 2 5 2 2 1 6 6 9 15 8 2 6 6 8 9 8 8
10 11 14 14 16 18 21 23 26 31 32 4 6 2 3 5 5 11 6 4 9 6 8 13 5 14 9 4 6 2 6 9 4 3 2 3 8 10 16 18 11 12 13 17 19 21 17
12 13 15 16 16 15 16 19 22 25 25 6 5 6 7 6 7 5 3 4 4 8 5 6 6 13 7 5 5 7 10 2 6 4 1 1 5 2 11 14 18 20 20 28 22 27 24
14 15 15 14 14 15 15 16 17 18 12 6 4 4 2 5 7 5 4 6 5 8 1 6 11 14 13 10 11 16 18 20 21 18 10 5 3 3 14 6 11 19 26 29 22 15 14
13 14 15 15 15 16 15 15 15 14 6 2 1 1 3 4 5 4 11 10 8 6 8 15 15 6 6 21 22 18 23 30 30 31 24 14 9 7 15 5 21 12 9 10 19 19 23
13 14 16 16 14 15 15 15 15 15 12 0 2 1 0 4 4 13 2 2 9 12 5 8 5 4 18 10 7 9 5 5 12 26 25 30 21 13 13 16 22 24 27 9 11 14 14
14 15 15 15 16 16 16 16 16 15 16 1 3 4 2 2 5 6 3 9 4 4 5 5 10 14 5 4 4 5 6 4 5 2 8 14 18 18 9 9 11 3 4 3 8 12 23
15 15 16 16 16 16 16 16 16 18 17 5 3 5 3 5 10 8 8 5 4 2 4 7 7 11 2 3 5 6 9 5 8 5 5 6 6 28 25 18 15 9 7 6 8 11 6
13 15 16 18 18 18 18 18 19 17 18 11 7 11 8 6 11 13 9 9 5 5 6 5 8 1 3 3 4 4 4 4 6 8 4 9 9 8 11 14 19 7 4 12 6 1 4
16 17 18 19 20 20 20 19 19 19 18 18 9 8 11 11 6 4 13 29 20 20 10 5 8 4 4 4 2 3 8 8 8 10 10 7 5 6 8 8 7 9 17 14 12 11 10
Wind_Direction
39 31 30 26 21 21 17 14 12 8 6 3 2 357 351 345 335 328 322 318 315 312 316 323 332 339 10 348 254 165 138 70 56 54 44 35 38 35 349 313 305 230 278 271 256 280 280
36 33 29 27 22 19 16 14 8 5 2 0 357 354 351 344 338 329 322 316 312 311 312 317 331 335 70 290 119 149 141 83 79 64 45 44 74 94 276 274 267 292 283 287 289 284 267
39 30 29 27 23 18 15 11 9 5 2 360 357 351 347 342 335 328 320 316 311 309 308 304 326 54 209 251 108 155 156 137 144 126 20 173 140 40 348 284 299 300 314 313 264 266 286
36 30 31 29 24 20 16 13 9 6 3 0 357 352 347 341 333 324 314 308 300 287 288 284 323 94 256 220 180 217 173 52 87 145 172 164 151 114 197 306 320 317 347 337 305 315 308
39 34 31 29 28 22 17 14 9 5 1 0 355 352 347 341 334 325 315 306 302 241 222 258 154 128 276 99 267 136 179 155 100 86 74 117 99 68 30 336 344 21 318 312 319 323 281
44 36 28 23 21 17 14 11 5 1 358 355 351 347 343 343 335 331 325 306 98 112 87 89 66 316 253 202 267 119 95 115 98 42 66 33 36 325 24 25 324 302 313 295 293 299 299
32 23 14 10 10 11 9 3 357 352 351 349 347 343 342 341 338 335 354 342 358 331 89 226 218 272 275 307 274 131 138 108 70 62 327 5 326 305 309 247 255 279 274 285 288 289 319
24 31 32 29 22 12 5 1 1 1 359 354 348 343 340 339 337 337 39 61 98 285 306 277 248 275 261 230 286 176 155 91 39 303 329 326 269 225 292 280 265 266 289 298 294 253 322
41 33 25 20 17 10 6 3 1 354 351 349 345 343 340 338 335 34 41 56 326 123 286 299 213 208 193 166 231 213 165 124 248 279 264 265 267 305 294 315 328 301 258 301 297 317 254
35 31 26 21 14 7 3 2 360 356 351 347 343 340 343 334 49 347 43 334 335 140 336 262 217 189 129 148 253 190 179 151 220 283 298 254 289 306 318 308 11 320 230 279 303 337 326
32 26 21 17 14 12 8 5 358 353 348 345 339 336 339 340 298 301 217 322 262 108 317 181 186 154 150 207 285 218 210 104 232 238 295 285 279 322 309 296 192 268 311 305 253 280 323
23 17 17 14 11 8 4 2 358 352 347 342 337 332 334 353 301 287 322 43 186 12 257 282 171 210 276 202 232 136 188 98 108 272 238 257 281 238 247 296 233 299 320 80 88 131 0
26 19 14 11 7 9 5 359 353 347 341 338 331 324 322 268 262 333 330 62 347 218 346 245 248 195 243 235 240 190 211 225 230 306 301 306 242 249 240 313 241 0 17 348 355 356 321
19 18 15 10 10 7 1 357 353 349 343 338 326 321 339 248 311 339 62 51 218 240 246 216 185 201 241 185 237 218 260 271 219 171 227 274 309 189 193 243 313 24 54 60 328 326 305
21 22 20 17 11 10 2 357 352 348 345 337 328 333 5 1 349 327 115 204 223 219 212 199 178 229 237 196 209 240 228 241 225 188 208 198 266 224 202 181 209 118 32 165 236 217 296
17 22 22 16 11 7 3 1 357 352 346 342 327 341 358 334 22 59 164 231 233 226 268 176 221 206 244 217 202 190 208 202 244 200 198 204 272 211 150 135 55 253 151 305 51 326 308
24 21 17 14 14 10 2 1 359 355 349 340 8 4 332 347 60 99 224 242 293 288 247 221 243 249 231 235 218 222 236 248 186 168 149 152 204 265 287 205 188 158 199 102 126 161 280
18 15 10 10 11 8 2 360 359 357 352 9 355 46 329 349 132 58 235 316 323 314 345 275 262 233 237 211 248 243 239 240 166 158 183 198 171 242 258 156 118 193 203 173 170 246 218
12 12 6 6 7 6 4 1 357 356 358 333 16 310 323 1 279 323 320 310 290 323 341 343 310 306 342 230 300 234 236 357 188 187 190 182 219 288 289 318 85 208 196 173 114 127 213
1 358 355 357 4 5 2 360 359 356 357 358 338 2 350 41 71 19 345 315 311 331 299 343 323 1 346 288 236 272 268 20 317 211 156 169 205 225 240 254 158 240 209 209 200 227 232
350 345 344 346 348 356 1 359 360 356 353 355 6 27 48 350 339 339 333 295 311 320 349 20 82 26 5 298 312 254 10 341 322 347 158 199 243 235 254 264 269 262 262 255 228 241 243
349 349 355 353 349 348 353 359 360 2 355 61 21 357 359 311 312 315 303 13 8 341 331 353 32 349 347 302 316 298 349 309 269 336 111 32 266 266 275 269 272 270 254 256 248 244 246
350 351 348 349 356 356 352 349 355 5 21 38 353 1 1 330 342 340 13 358 355 6 227 65 345 319 307 309 312 286 267 257 254 270 274 273 259 334 278 263 296 277 238 236 241 221 226
353 355 352 356 357 354 355 352 346 345 56 85 3 8 14 306 335 326 330 329 337 1 286 302 307 303 329 321 305 276 254 246 239 235 222 231 214 218 271 301 272 262 225 244 238 244 221
351 352 352 347 350 349 349 347 344 342 338 210 185 23 162 276 279 300 329 353 320 314 292 289 294 332 314 306 301 305 292 262 247 238 233 222 214 236 239 243 274 285 276 225 211 266 247
337 337 336 330 332 336 335 335 334 333 330 34 229 171 192 247 248 227 292 289 279 292 313 282 321 320 339 298 260 253 254 307 293 280 13 199 220 210 202 234 260 270 334 127 134 272 266
332 334 331 327 330 330 329 327 325 321 318 324 259 195 192 227 251 211 214 213 208 228 257 291 316 314 254 239 250 256 256 253 263 251 205 140 187 218 227 241 264 236 169 154 283 265 345
324 322 319 316 318 322 316 315 314 315 313 314 272 192 227 244 240 223 208 215 250 196 240 284 336 328 283 247 254 272 278 341 290 324 258 229 218 198 211 232 257 211 126 216 221 7 354
315 311 307 307 314 318 317 311 307 306 314 308 281 219 205 234 274 316 245 239 231 218 247 197 225 244 255 267 279 330 297 295 293 284 312 283 226 317 246 240 338 12 325 319 324 307 305